{"data":{"norad_id":55107,"epoch":"2026-09-21T23:35:33.124128Z","epoch_age_seconds":40134,"freshness":"FRESH","line1":"1 55107U 23001DC  26264.98302227  .00002480  00000+0  24527-3 0  9993","line2":"2 55107  97.9134 342.2708 0008223 326.0645  34.0047 14.92812717192721","mean_motion":14.92812717,"eccentricity":0.0008223,"inclination_deg":97.9134,"raan_deg":342.2708,"arg_perigee_deg":326.0645,"mean_anomaly_deg":34.0047,"bstar":0.00024527,"rev_number":19272,"period_min":96.462200757096,"perigee_km":583.44094398019,"apogee_km":594.89937733661,"semimajor_km":6967.3071606584,"source":"CELESTRAK","updated_at":"2026-09-22T09:00:25.271456Z"}}